Location: Mohawk View
(42.7837°N, 73.7885°W)
Time: 11:34:44
(UTC+00:00)

USA 290 - Pass Details

Date: 17 June 2021
Orbit: 401 x 412 km, 73.6° (Epoch: 10 July)

Event Time Altitude Azimuth Distance (km) Brightness Sun altitude
Exits shadow 08:14:53 11° 257° (WSW) 1,437 4.4 -9.6°
Maximum altitude 08:17:01 17° 300° (WNW) 1,101 4.2 -9.3°
Drops below altitude 10° 08:19:16 10° 344° (NNW) 1,471 5.4 -9.0°
Sets 08:21:48 0° 5° (N) 2,334 6.9 -8.7°
